Regional Weather Roundup
Issued by NWS Cleveland, OH

Home | Current Version | Previous Version | Graphics & Text | Print | Product List | Glossary On
Versions: 1 2 3 4 5 6 7 8 9 10 11 12 13 14 15 16 17 18 19 20 21 22 23 24 25 26 27 28 29 30 31 32 33 34 35 36 37 38 39 40 41 42 43 44 45 46 47 48 49 50
000
ASUS41 KCLE 260510
RWRCLE
OHIO REGIONAL WEATHER ROUNDUP
NATIONAL WEATHER SERVICE WILMINGTON, OH
100 AM EDT WED JUL 26 2017

NOTE: "FAIR" INDICATES FEW OR NO CLOUDS BELOW 12,000 FEET WITH NO
SIGNIFICANT WEATHER AND/OR OBSTRUCTIONS TO VISIBILITY.

OHZ001>008-015>018-024>027-034-035-043-044-260600-
   NORTHWEST OHIO

CITY           SKY/WX    TMP DP  RH WIND       PRES   REMARKS
DEFIANCE       FAIR     N/A N/A N/A E3        30.20S
FINDLAY        FAIR      64  58  80 E8        30.19S
TOLEDO EXPRESS FAIR      62  60  93 S3        30.20S
TOLEDO EXEC    FAIR      63  60  90 SE7       30.20F
LIMA           FAIR      61  59  93 E6        30.20S
$$

OHZ009>014-019>023-028>033-038-089-260600-
   NORTHEAST OHIO

CITY           SKY/WX    TMP DP  RH WIND       PRES   REMARKS
CLE-HOPKINS    FAIR      65  56  72 E3        30.23S
CLE-LAKEFRONT  FAIR      65  55  70 S3        30.21R
CUY CO. ARPT   NOT AVBL
LORAIN-ELYRIA  FAIR      56  52  86 CALM      30.22S
ASHTABULA      FAIR      56  55  97 CALM      30.23F
AKRON-CANTON   FAIR      62  54  74 E6        30.22F
WOOSTER        FAIR      59  57  93 SE3       30.23S
MANSFIELD      FAIR      62  59  90 SE6       30.22F
YOUNGSTOWN     FAIR      56  53  90 E7        30.22F
$$

OHZ042-051>053-060>062-070>072-077>081-260600-
  SOUTHWEST OHIO

CITY           SKY/WX    TMP DP  RH WIND       PRES   REMARKS
CINC-COVINGTON FAIR      67  62  84 SE10      30.18F
CINC-LUNKEN    FAIR      64  63  96 CALM      30.19F
HAMILTON       FAIR      66  61  84 E5        30.19F
DAYTON         FAIR      64  59  83 SE6       30.21R
WRIGHT-PAT AFB FAIR      65  60  84 CALM      30.21R
DAYTON GENERAL FAIR      64  59  83 SE5       30.20R
WILMINGTON     FAIR      60  60 100 SE5       30.20S
$$

OHZ036-037-039>041-045>050-054>059-063>069-073>076-082>088-260600-
  CENTRAL AND SOUTHEAST OHIO

CITY           SKY/WX    TMP DP  RH WIND       PRES   REMARKS
COLUMBUS       FAIR      65  62  90 CALM      30.20S
OSU AIRPORT    FAIR      63  62  97 CALM      30.20S
BOLTON FIELD   FAIR      60  59  97 CALM      30.21S
RICKENBACK AFB FAIR      61  60  96 CALM      30.20S
NEWARK         FAIR      59  58  96 CALM      30.21R FOG
MARION         FAIR      61  57  87 E6        30.22S
LANCASTER      FAIR      58  58 100 CALM      30.20F FOG
ZANESVILLE     FAIR      62  59  90 CALM      30.21S
NEW PHILLY     FAIR      61  60  97 CALM      30.23S
$$




USA.gov is the U.S. government's official web portal to all federal, state and local government web resources and services.